Кушмурун

Казахстан     52°27′05″N   64°36′37″E
темп.,
°C
ветер,
м/с
пор.,
м/с
влажн.,
%
обл.,
%
осадки,
мм/ч
давл.,
гПа
погр.,
м
2 марта, вт
вт223:00−19зсз119833 0.0 101920
02:00−18ююз129883 0.0 101820
05:00−16ююз229786 0.1 101747
08:00−16ю239699 0.3 101661
11:00−13ююз459487 0.3 1016244
14:00−11ююз579197 0.0 1015397
17:00−12ююз599093 0.0 1015324
20:00−17ююз610939 0.0 1015195
3 марта, ср
ср323:00−19ююз611945 0.0 1015217
02:00−18ююз7129266 0.0 1014312
05:00−15ююз8129383 0.1 1013404
08:00−12ююз91493100 0.2 1012475
11:00−8ююз101594100 0.8 1011697
14:00−3ююз101593100 0.9 1010928
17:00−2юз101592100 1.4 1009931
20:00−2ююз91590100 0.3 1008728
4 марта, чт
чт423:00−2ююз91595100 0.4 1007749
02:00−1ююз91596100 0.8 1004832
05:000юз91496100 1.8 1003763
08:00−1юз81393100 0.6 1002645
11:00−1юз91293100 0.8 1003773
14:00−1зюз81195100 0.5 1003810
17:00−3з61282100 0.6 1005572
20:00−9зюз5118712 0.0 1008214
5 марта, пт
пт523:00−10зюз612886 0.0 1012228
02:00−12юз612870 0.0 1013245
05:00−12юз715890 0.0 1014361
08:00−8ююз10179390 0.2 1013711
11:00−3юз12188495 0.8 1012899
14:00−2юз131981100 0.0 10121082
17:00−1юз122082100 0.0 10121142
20:00−1юз111884100 0.0 10121038
6 марта, сб
сб623:00−2юз101686100 0.1 1013886
02:00−2юз91590100 0.1 1013776
05:00−1юз81488100 0.3 1014653
08:00−2зюз7129199 0.1 1015519
11:00−1з4689100 0.1 1017557
14:00−2зсз1277100 0.0 1017194
17:000ююз5894100 0.1 1016452
20:00−2ю71094100 0.0 1014508